EIN6EP EBBR-EIDW

Flight info

Callsign EIN6EP
Flight time 1h 18m
Altitude 36000
Route DENUT L610 KOPUL DCT SABER DCT SIVDA DCT RODOL UL28 LELDO M145 BAGSO BAGSO4L
Aircraft A320/M-SDE3FGHIRWY/LB1

Departure

Time 2026-05-07 11:45
Airport Brussels Airport (EBBR)

Arrival

Time 2026-05-07 13:04
Airport Dublin Airport (EIDW)
Time Latitude Longitude Altitude Speed Heading
2026-05-07 11:15 50.89962 4.48787 193 ft 0 kts 335°
2026-05-07 11:32 50.89943 4.48802 193 ft 2 kts 335°
2026-05-07 11:32 50.89930 4.48812 193 ft 2 kts 335°
2026-05-07 11:32 50.89916 4.48822 193 ft 2 kts 335°
2026-05-07 11:33 50.89903 4.48832 193 ft 2 kts 335°
2026-05-07 11:33 50.89889 4.48842 193 ft 2 kts 335°
2026-05-07 11:33 50.89876 4.48850 193 ft 1 kts
2026-05-07 11:33 50.89865 4.48840 193 ft 0 kts 59°
2026-05-07 11:34 50.89863 4.48831 193 ft 1 kts 69°
2026-05-07 11:34 50.89862 4.48827 193 ft 0 kts 66°
2026-05-07 11:35 50.89862 4.48829 193 ft 0 kts 66°
2026-05-07 11:36 50.89869 4.48852 193 ft 3 kts 66°
2026-05-07 11:36 50.89885 4.48907 193 ft 7 kts 66°
2026-05-07 11:36 50.89909 4.48993 193 ft 10 kts 68°
2026-05-07 11:36 50.89941 4.49106 193 ft 12 kts 66°
2026-05-07 11:37 50.89977 4.49248 193 ft 15 kts 69°
2026-05-07 11:37 50.90031 4.49402 193 ft 16 kts 42°
2026-05-07 11:37 50.90140 4.49465 193 ft 16 kts 15°
2026-05-07 11:37 50.90248 4.49508 193 ft 15 kts 15°
2026-05-07 11:38 50.90356 4.49554 193 ft 16 kts 14°
2026-05-07 11:38 50.90466 4.49598 193 ft 16 kts 15°
2026-05-07 11:38 50.90579 4.49643 193 ft 16 kts 15°
2026-05-07 11:38 50.90694 4.49690 193 ft 17 kts 15°
2026-05-07 11:39 50.90805 4.49698 193 ft 16 kts 319°
2026-05-07 11:39 50.90857 4.49545 193 ft 16 kts 257°
2026-05-07 11:39 50.90812 4.49377 193 ft 16 kts 246°
2026-05-07 11:39 50.90767 4.49219 193 ft 15 kts 246°
2026-05-07 11:40 50.90724 4.49065 193 ft 14 kts 245°
2026-05-07 11:40 50.90679 4.48916 193 ft 15 kts 246°
2026-05-07 11:40 50.90634 4.48761 193 ft 15 kts 245°
2026-05-07 11:40 50.90587 4.48599 193 ft 16 kts 246°
2026-05-07 11:41 50.90538 4.48429 193 ft 17 kts 245°
2026-05-07 11:41 50.90487 4.48253 193 ft 17 kts 245°
2026-05-07 11:41 50.90434 4.48072 193 ft 18 kts 245°
2026-05-07 11:41 50.90380 4.47886 193 ft 18 kts 246°
2026-05-07 11:42 50.90327 4.47699 193 ft 19 kts 246°
2026-05-07 11:42 50.90272 4.47506 193 ft 19 kts 245°
2026-05-07 11:42 50.90216 4.47313 193 ft 19 kts 246°
2026-05-07 11:42 50.90160 4.47115 193 ft 19 kts 245°
2026-05-07 11:43 50.90101 4.46916 193 ft 19 kts 246°
2026-05-07 11:43 50.90059 4.46770 193 ft 10 kts 250°
2026-05-07 11:43 50.90098 4.46687 193 ft 11 kts 12°
2026-05-07 11:43 50.90165 4.46771 193 ft 12 kts 37°
2026-05-07 11:44 50.90239 4.46860 193 ft 13 kts 37°
2026-05-07 11:44 50.90300 4.46987 193 ft 17 kts 64°
2026-05-07 11:44 50.90376 4.47248 193 ft 48 kts 65°
2026-05-07 11:44 50.90625 4.48109 193 ft 121 kts 65°
2026-05-07 11:45 50.91050 4.49607 313 ft 168 kts 66°
2026-05-07 11:45 50.91525 4.51330 897 ft 175 kts 66°
2026-05-07 11:45 50.92013 4.53121 1640 ft 182 kts 66°
2026-05-07 11:45 50.92611 4.54826 2428 ft 183 kts 44°
2026-05-07 11:46 50.93804 4.55570 2953 ft 197 kts 358°
2026-05-07 11:46 50.95129 4.54784 3428 ft 219 kts 321°
2026-05-07 11:46 50.96042 4.52744 3976 ft 240 kts 294°
2026-05-07 11:46 50.96724 4.50263 4652 ft 255 kts 296°
2026-05-07 11:47 50.97495 4.47733 5583 ft 261 kts 297°
2026-05-07 11:47 50.98311 4.45143 6595 ft 264 kts 298°
2026-05-07 11:47 50.99133 4.42568 7514 ft 267 kts 298°
2026-05-07 11:47 50.99975 4.39953 8356 ft 271 kts 298°
2026-05-07 11:48 51.00840 4.37273 9196 ft 275 kts 298°
2026-05-07 11:48 51.01714 4.34565 10009 ft 278 kts 297°
2026-05-07 11:48 51.02598 4.31823 10708 ft 287 kts 297°
2026-05-07 11:48 51.03535 4.28918 11204 ft 304 kts 297°
2026-05-07 11:49 51.04516 4.25867 11855 ft 314 kts 297°
2026-05-07 11:49 51.05499 4.22805 12658 ft 317 kts 297°
2026-05-07 11:49 51.06495 4.19695 13453 ft 320 kts 297°
2026-05-07 11:49 51.07507 4.16535 14218 ft 323 kts 297°
2026-05-07 11:50 51.08522 4.13360 14956 ft 326 kts 296°
2026-05-07 11:50 51.09561 4.10106 15686 ft 330 kts 296°
2026-05-07 11:50 51.10587 4.06891 16389 ft 332 kts 296°
2026-05-07 11:50 51.11631 4.03613 17084 ft 335 kts 296°
2026-05-07 11:51 51.12691 4.00279 17768 ft 339 kts 296°
2026-05-07 11:51 51.13744 3.96965 18427 ft 342 kts 296°
2026-05-07 11:51 51.14814 3.93595 19090 ft 344 kts 296°
2026-05-07 11:51 51.15898 3.90176 19730 ft 346 kts 296°
2026-05-07 11:52 51.16984 3.86747 20345 ft 349 kts 296°
2026-05-07 11:52 51.18078 3.83287 20950 ft 352 kts 296°
2026-05-07 11:52 51.19167 3.79838 21532 ft 355 kts 296°
2026-05-07 11:52 51.20286 3.76287 22102 ft 358 kts 296°
2026-05-07 11:53 51.21391 3.72774 22646 ft 361 kts 296°
2026-05-07 11:53 51.22510 3.69154 23190 ft 364 kts 294°
2026-05-07 11:53 51.23450 3.65411 23708 ft 367 kts 288°
2026-05-07 11:53 51.24159 3.61520 24211 ft 369 kts 283°
2026-05-07 11:54 51.24719 3.57500 24710 ft 372 kts 282°
2026-05-07 11:54 51.25245 3.53497 25193 ft 375 kts 281°
2026-05-07 11:54 51.25784 3.49372 25685 ft 378 kts 281°
2026-05-07 11:54 51.26318 3.45293 26164 ft 381 kts 282°
2026-05-07 11:55 51.26861 3.41170 26645 ft 384 kts 282°
2026-05-07 11:55 51.27405 3.36982 27120 ft 386 kts 281°
2026-05-07 11:55 51.27943 3.32798 27582 ft 389 kts 281°
2026-05-07 11:55 51.28489 3.28528 28039 ft 392 kts 281°
2026-05-07 11:56 51.29031 3.24286 28479 ft 394 kts 281°
2026-05-07 11:56 51.29581 3.19981 28913 ft 397 kts 281°
2026-05-07 11:56 51.30130 3.15675 29329 ft 399 kts 281°
2026-05-07 11:56 51.30687 3.11290 29720 ft 402 kts 281°
2026-05-07 11:57 51.31236 3.06956 30117 ft 405 kts 281°
2026-05-07 11:57 51.31798 3.02514 30534 ft 407 kts 281°
2026-05-07 11:57 51.32355 2.98093 30928 ft 410 kts 281°
2026-05-07 11:57 51.32914 2.93647 31301 ft 412 kts 281°
2026-05-07 11:58 51.33473 2.89185 31664 ft 415 kts 281°
2026-05-07 11:58 51.34040 2.84648 32023 ft 417 kts 281°
2026-05-07 11:58 51.34604 2.80110 32350 ft 419 kts 281°
2026-05-07 11:58 51.35170 2.75532 32652 ft 421 kts 281°
2026-05-07 11:59 51.35736 2.70950 32948 ft 423 kts 281°
2026-05-07 11:59 51.36303 2.66344 33239 ft 425 kts 281°
2026-05-07 11:59 51.36876 2.61678 33522 ft 427 kts 281°
2026-05-07 11:59 51.37446 2.57032 33787 ft 429 kts 281°
2026-05-07 12:00 51.38025 2.52303 34045 ft 431 kts 281°
2026-05-07 12:00 51.38595 2.47627 34292 ft 433 kts 281°
2026-05-07 12:00 51.39172 2.42887 34533 ft 434 kts 281°
2026-05-07 12:00 51.39746 2.38159 34792 ft 435 kts 281°
2026-05-07 12:01 51.40319 2.33403 35056 ft 435 kts 280°
2026-05-07 12:01 51.40889 2.28660 35297 ft 436 kts 280°
2026-05-07 12:01 51.41462 2.23890 35495 ft 437 kts 280°
2026-05-07 12:01 51.42043 2.19137 35699 ft 438 kts 280°
2026-05-07 12:02 51.42628 2.14365 35881 ft 439 kts 280°
2026-05-07 12:02 51.43213 2.09574 36044 ft 440 kts 280°
2026-05-07 12:02 51.43792 2.04803 36064 ft 441 kts 280°
2026-05-07 12:03 51.44945 1.95179 36057 ft 441 kts 280°
2026-05-07 12:03 51.46085 1.85458 36061 ft 441 kts 280°
2026-05-07 12:04 51.47205 1.75783 36070 ft 441 kts 280°
2026-05-07 12:04 51.48317 1.66108 36071 ft 441 kts 280°
2026-05-07 12:05 51.49416 1.56471 36070 ft 441 kts 280°
2026-05-07 12:05 51.50513 1.46788 36070 ft 441 kts 280°
2026-05-07 12:06 51.51604 1.37082 36071 ft 441 kts 280°
2026-05-07 12:06 51.52716 1.27381 36068 ft 441 kts 282°
2026-05-07 12:07 51.54795 1.18175 36070 ft 442 kts 297°
2026-05-07 12:07 51.58263 1.10014 36071 ft 442 kts 311°
2026-05-07 12:08 51.62852 1.03484 36074 ft 443 kts 323°
2026-05-07 12:08 51.67883 0.97763 36072 ft 443 kts 324°
2026-05-07 12:09 51.72760 0.91648 36071 ft 443 kts 319°
2026-05-07 12:09 51.77416 0.85188 36058 ft 443 kts 319°
2026-05-07 12:10 51.82075 0.78688 36042 ft 444 kts 318°
2026-05-07 12:10 51.86758 0.72151 36046 ft 444 kts 318°
2026-05-07 12:11 51.91432 0.65609 36056 ft 444 kts 318°
2026-05-07 12:11 51.96100 0.59061 36059 ft 444 kts 318°
2026-05-07 12:12 52.00766 0.52501 36060 ft 445 kts 319°
2026-05-07 12:12 52.05434 0.45920 36063 ft 445 kts 319°
2026-05-07 12:13 52.10079 0.39349 36066 ft 446 kts 319°
2026-05-07 12:13 52.14752 0.32723 36066 ft 446 kts 318°
2026-05-07 12:14 52.19457 0.26036 36064 ft 446 kts 318°
2026-05-07 12:14 52.24166 0.19324 36063 ft 446 kts 318°
2026-05-07 12:15 52.28841 0.12640 36063 ft 446 kts 318°
2026-05-07 12:15 52.33510 0.05842 36063 ft 446 kts 315°
2026-05-07 12:16 52.37774 -0.01616 36065 ft 446 kts 309°
2026-05-07 12:16 52.41695 -0.09675 36090 ft 446 kts 308°
2026-05-07 12:17 52.45584 -0.17800 36115 ft 448 kts 308°
2026-05-07 12:17 52.49490 -0.25969 36094 ft 448 kts 308°
2026-05-07 12:18 52.53395 -0.34146 36073 ft 449 kts 308°
2026-05-07 12:18 52.57327 -0.42401 36067 ft 449 kts 308°
2026-05-07 12:19 52.61210 -0.50580 36065 ft 449 kts 308°
2026-05-07 12:19 52.65054 -0.58705 36064 ft 449 kts 308°
2026-05-07 12:20 52.68932 -0.66927 36063 ft 449 kts 307°
2026-05-07 12:20 52.72741 -0.75030 36063 ft 449 kts 307°
2026-05-07 12:21 52.76582 -0.83227 36063 ft 449 kts 307°
2026-05-07 12:21 52.80387 -0.91373 36063 ft 449 kts 307°
2026-05-07 12:22 52.84223 -0.99612 36062 ft 449 kts 307°
2026-05-07 12:22 52.88060 -1.07882 36062 ft 449 kts 307°
2026-05-07 12:23 52.91948 -1.16287 36062 ft 449 kts 307°
2026-05-07 12:23 52.95833 -1.24715 36062 ft 449 kts 307°
2026-05-07 12:24 52.99721 -1.33176 36062 ft 449 kts 307°
2026-05-07 12:24 53.03541 -1.41516 36062 ft 448 kts 307°
2026-05-07 12:25 53.07438 -1.50052 36060 ft 448 kts 307°
2026-05-07 12:25 53.11274 -1.58480 36058 ft 448 kts 307°
2026-05-07 12:26 53.15025 -1.66754 36055 ft 448 kts 306°
2026-05-07 12:26 53.18735 -1.74962 36052 ft 448 kts 306°
2026-05-07 12:27 53.22440 -1.83378 36049 ft 449 kts 303°
2026-05-07 12:27 53.25606 -1.92265 36049 ft 448 kts 296°
2026-05-07 12:28 53.28402 -2.01598 36049 ft 448 kts 295°
2026-05-07 12:28 53.31165 -2.10941 36044 ft 448 kts 295°
2026-05-07 12:29 53.33946 -2.20344 36039 ft 448 kts 295°
2026-05-07 12:29 53.36382 -2.30010 36038 ft 447 kts 288°
2026-05-07 12:30 53.38314 -2.39951 36038 ft 447 kts 287°
2026-05-07 12:30 53.40193 -2.49911 36037 ft 447 kts 287°
2026-05-07 12:31 53.42066 -2.59842 36036 ft 447 kts 287°
2026-05-07 12:31 53.43850 -2.69322 36036 ft 447 kts 286°
2026-05-07 12:32 53.45727 -2.79333 36035 ft 447 kts 286°
2026-05-07 12:32 53.47583 -2.89307 36034 ft 447 kts 286°
2026-05-07 12:33 53.50368 -3.04412 36029 ft 447 kts 286°
2026-05-07 12:33 53.52195 -3.14369 35808 ft 445 kts 286°
2026-05-07 12:34 53.53117 -3.19417 35090 ft 450 kts 285°
2026-05-07 12:34 53.54043 -3.24495 34193 ft 457 kts 286°
2026-05-07 12:34 53.54988 -3.29691 33379 ft 459 kts 286°
2026-05-07 12:34 53.55918 -3.34814 32843 ft 453 kts 286°
2026-05-07 12:35 53.56835 -3.39886 32326 ft 448 kts 285°
2026-05-07 12:35 53.57756 -3.44991 31649 ft 443 kts 285°
2026-05-07 12:35 53.58673 -3.50092 30937 ft 439 kts 285°
2026-05-07 12:35 53.59561 -3.55045 30437 ft 429 kts 285°
2026-05-07 12:36 53.60433 -3.59925 30028 ft 417 kts 285°
2026-05-07 12:36 53.61286 -3.64608 29680 ft 409 kts 287°
2026-05-07 12:36 53.62130 -3.68635 29386 ft 407 kts 289°
2026-05-07 12:36 53.63171 -3.73064 29059 ft 405 kts 290°
2026-05-07 12:37 53.64218 -3.77406 28737 ft 403 kts 290°
2026-05-07 12:37 53.65284 -3.81822 28443 ft 401 kts 290°
2026-05-07 12:37 53.66331 -3.86181 28167 ft 400 kts 290°
2026-05-07 12:37 53.67365 -3.90512 27891 ft 398 kts 290°
2026-05-07 12:38 53.68388 -3.94810 27617 ft 396 kts 290°
2026-05-07 12:38 53.69401 -3.99088 27345 ft 394 kts 289°
2026-05-07 12:38 53.70304 -4.03441 27071 ft 392 kts 285°
2026-05-07 12:38 53.71025 -4.07851 26799 ft 390 kts 281°
2026-05-07 12:39 53.71564 -4.12298 26528 ft 387 kts 277°
2026-05-07 12:39 53.71922 -4.16772 26256 ft 385 kts 273°
2026-05-07 12:39 53.72125 -4.21274 25983 ft 383 kts 271°
2026-05-07 12:39 53.72295 -4.25758 25709 ft 381 kts 271°
2026-05-07 12:40 53.72459 -4.30198 25435 ft 380 kts 271°
2026-05-07 12:40 53.72622 -4.34610 25162 ft 378 kts 271°
2026-05-07 12:40 53.72784 -4.39023 24888 ft 376 kts 271°
2026-05-07 12:40 53.72947 -4.43429 24614 ft 375 kts 271°
2026-05-07 12:41 53.73104 -4.47764 24344 ft 373 kts 271°
2026-05-07 12:41 53.73257 -4.52135 24072 ft 372 kts 271°
2026-05-07 12:41 53.73409 -4.56487 23801 ft 370 kts 271°
2026-05-07 12:41 53.73560 -4.60827 23530 ft 369 kts 271°
2026-05-07 12:42 53.73708 -4.65108 23262 ft 367 kts 270°
2026-05-07 12:42 53.73849 -4.69236 23013 ft 365 kts 270°
2026-05-07 12:42 53.73992 -4.73489 22759 ft 363 kts 270°
2026-05-07 12:42 53.74133 -4.77721 22505 ft 362 kts 270°
2026-05-07 12:43 53.74271 -4.81923 22251 ft 360 kts 270°
2026-05-07 12:43 53.74410 -4.86151 21994 ft 358 kts 270°
2026-05-07 12:43 53.74548 -4.90361 21737 ft 357 kts 270°
2026-05-07 12:43 53.74682 -4.94502 21482 ft 355 kts 270°
2026-05-07 12:44 53.74815 -4.98648 21226 ft 353 kts 270°
2026-05-07 12:44 53.74946 -5.02786 20968 ft 351 kts 270°
2026-05-07 12:44 53.75073 -5.06848 20714 ft 349 kts 270°
2026-05-07 12:44 53.75166 -5.10932 20456 ft 347 kts 266°
2026-05-07 12:45 53.74930 -5.14995 20197 ft 343 kts 257°
2026-05-07 12:45 53.74339 -5.18832 19949 ft 339 kts 250°
2026-05-07 12:45 53.73587 -5.22609 19696 ft 338 kts 249°
2026-05-07 12:45 53.72814 -5.26365 19372 ft 336 kts 249°
2026-05-07 12:46 53.72052 -5.30075 19000 ft 334 kts 249°
2026-05-07 12:46 53.71303 -5.33734 18609 ft 332 kts 249°
2026-05-07 12:46 53.70552 -5.37410 18206 ft 329 kts 249°
2026-05-07 12:46 53.69812 -5.41037 17804 ft 327 kts 249°
2026-05-07 12:47 53.69076 -5.44646 17405 ft 324 kts 249°
2026-05-07 12:47 53.68356 -5.48213 16999 ft 322 kts 251°
2026-05-07 12:47 53.67746 -5.51851 16585 ft 321 kts 255°
2026-05-07 12:47 53.67259 -5.55488 16174 ft 319 kts 256°
2026-05-07 12:48 53.66789 -5.59108 15781 ft 316 kts 256°
2026-05-07 12:48 53.66318 -5.62735 15379 ft 314 kts 256°
2026-05-07 12:48 53.65888 -5.66037 15014 ft 312 kts 255°
2026-05-07 12:48 53.65418 -5.69621 14620 ft 308 kts 255°
2026-05-07 12:49 53.64961 -5.73084 14239 ft 304 kts 255°
2026-05-07 12:49 53.64510 -5.76550 13860 ft 301 kts 255°
2026-05-07 12:49 53.64059 -5.79963 13491 ft 298 kts 255°
2026-05-07 12:49 53.63612 -5.83350 13120 ft 296 kts 255°
2026-05-07 12:50 53.63171 -5.86671 12751 ft 293 kts 255°
2026-05-07 12:50 53.62728 -5.90010 12394 ft 289 kts 255°
2026-05-07 12:50 53.62288 -5.93290 12036 ft 287 kts 255°
2026-05-07 12:50 53.61848 -5.96543 11672 ft 285 kts 254°
2026-05-07 12:51 53.61416 -5.99744 11309 ft 282 kts 255°
2026-05-07 12:51 53.60983 -6.02975 10925 ft 281 kts 254°
2026-05-07 12:51 53.60554 -6.06145 10550 ft 278 kts 254°
2026-05-07 12:51 53.60124 -6.09312 10181 ft 276 kts 254°
2026-05-07 12:52 53.59710 -6.12369 10009 ft 267 kts 254°
2026-05-07 12:52 53.59301 -6.15377 9931 ft 259 kts 253°
2026-05-07 12:52 53.58895 -6.18348 9653 ft 258 kts 254°
2026-05-07 12:52 53.58503 -6.21244 9306 ft 255 kts 254°
2026-05-07 12:53 53.58109 -6.24150 8975 ft 252 kts 253°
2026-05-07 12:53 53.57720 -6.26997 8642 ft 248 kts 253°
2026-05-07 12:53 53.57336 -6.29792 8323 ft 245 kts 253°
2026-05-07 12:53 53.56955 -6.32561 8028 ft 241 kts 253°
2026-05-07 12:54 53.56589 -6.35231 7947 ft 234 kts 253°
2026-05-07 12:54 53.56262 -6.37942 7950 ft 236 kts 257°
2026-05-07 12:54 53.56052 -6.40668 7955 ft 237 kts 259°
2026-05-07 12:54 53.55854 -6.43441 7954 ft 237 kts 259°
2026-05-07 12:55 53.55661 -6.46206 7671 ft 238 kts 259°
2026-05-07 12:55 53.55474 -6.48924 7377 ft 237 kts 259°
2026-05-07 12:55 53.55282 -6.51661 7092 ft 234 kts 259°
2026-05-07 12:55 53.55085 -6.54356 6815 ft 232 kts 259°
2026-05-07 12:56 53.54890 -6.57031 6540 ft 229 kts 259°
2026-05-07 12:56 53.54697 -6.59675 6255 ft 226 kts 259°
2026-05-07 12:56 53.54509 -6.62261 5980 ft 224 kts 259°
2026-05-07 12:56 53.54188 -6.64773 5676 ft 218 kts 240°
2026-05-07 12:57 53.53182 -6.66585 5378 ft 211 kts 208°
2026-05-07 12:57 53.51782 -6.67257 5061 ft 211 kts 185°
2026-05-07 12:57 53.50337 -6.67441 4798 ft 208 kts 185°
2026-05-07 12:57 53.48917 -6.67646 4538 ft 205 kts 186°
2026-05-07 12:58 53.47496 -6.67860 4282 ft 203 kts 186°
2026-05-07 12:58 53.46090 -6.67851 4031 ft 203 kts 164°
2026-05-07 12:58 53.44946 -6.66548 3985 ft 200 kts 130°
2026-05-07 12:58 53.44320 -6.64507 3831 ft 198 kts 111°
2026-05-07 12:59 53.44031 -6.62259 3686 ft 194 kts 100°
2026-05-07 12:59 53.43935 -6.60017 3595 ft 195 kts 96°
2026-05-07 12:59 53.43866 -6.57748 3495 ft 194 kts 97°
2026-05-07 12:59 53.43768 -6.55487 3385 ft 194 kts 98°
2026-05-07 13:00 53.43648 -6.53248 3149 ft 194 kts 99°
2026-05-07 13:00 53.43516 -6.51014 2885 ft 193 kts 99°
2026-05-07 13:00 53.43380 -6.48789 2618 ft 191 kts 99°
2026-05-07 13:00 53.43247 -6.46573 2353 ft 190 kts 99°
2026-05-07 13:01 53.43119 -6.44385 2099 ft 187 kts 99°
2026-05-07 13:01 53.43000 -6.42275 1912 ft 179 kts 98°
2026-05-07 13:01 53.42886 -6.40260 1662 ft 175 kts 99°
2026-05-07 13:01 53.42768 -6.38239 1390 ft 168 kts 99°
2026-05-07 13:02 53.42661 -6.36350 1154 ft 158 kts 98°
2026-05-07 13:02 53.42563 -6.34576 934 ft 147 kts 98°
2026-05-07 13:02 53.42468 -6.32911 741 ft 139 kts 98°
2026-05-07 13:02 53.42376 -6.31320 567 ft 136 kts 98°
2026-05-07 13:03 53.42288 -6.29755 389 ft 134 kts 97°
2026-05-07 13:03 53.42204 -6.28222 252 ft 126 kts 97°
2026-05-07 13:03 53.42143 -6.27184 250 ft 57 kts 95°
2026-05-07 13:03 53.42107 -6.26550 250 ft 50 kts 93°
2026-05-07 13:04 53.42144 -6.26203 250 ft 21 kts 59°
2026-05-07 13:04 53.42224 -6.25993 250 ft 21 kts 71°
2026-05-07 13:04 53.42236 -6.25748 250 ft 21 kts 96°
2026-05-07 13:04 53.42220 -6.25503 251 ft 21 kts 96°
2026-05-07 13:05 53.42208 -6.25253 251 ft 21 kts 95°
2026-05-07 13:05 53.42220 -6.25037 251 ft 16 kts 63°
2026-05-07 13:05 53.42295 -6.24883 251 ft 17 kts 45°
2026-05-07 13:05 53.42383 -6.24732 251 ft 18 kts 50°
2026-05-07 13:06 53.42447 -6.24555 251 ft 14 kts 69°
2026-05-07 13:06 53.42426 -6.24460 251 ft 7 kts 136°
2026-05-07 13:06 53.42413 -6.24439 251 ft 0 kts 136°